NOAA 16 DEB, 41657

Orbit data source: Space-Track

NOAA 16 DEB, 41657 is space debris in SSO originally from a launch on Thu, 21 Sep 2000 UTC launched from the Air Force Western Test Range (AFWTR). Debris objects in space refer to the collection of defunct objects orbiting the Earth. Examples of debris include non-operational satellites, rocket bodies, and fragments generated from explosions, collisions, or faulty payload assembly.

Loading next visibility...
Identifier
41657, 2000-055NW
Orbit
SSO
Country
Flag of USUS
Related business
Manufacturer
Unknown
Mission
Spacecraft
Bus & Motor
Unknown
Mass
Unknown
Launch date (UTC)
2000-09-21 (26 years ago)
Launch vehicle
Unknown
Launch site
Air Force Western Test Range (AFWTR)
Object type
Payload
Rocket body
Debris
Shape & HBR
Unknown shape, 0.1 m
Radar Cross Section
Medium (>0.1 m² and <1 m²)

Expand to show TLE details & history
Last TLE update: 3 days ago

TLE from 3 days ago
0 NOAA 16 DEB
1 41657U 00055NW  26170.14051308  .00002957  00000-0  10972-2 0  9995
2 41657  98.6285 235.5390 0014615 131.0333 229.2117 14.32893427526315
Epoch: 2026-06-19T03:22Z
TLE epoch observation values (Epoch: 2026-06-19T03:22:20.330Z)
Latitude
0.00003°
Longitude
-82.41947°
Altitude
791.857 km
Speed
7.454 km/s
True Right ascension
15h 42m 09s
True Declination
0° 00' 00"
Sunlit
Object was in full shadow at epoch
Visualization orbit readout
Latitude
Unknown
Longitude
Unknown
Altitude
Unknown
Speed
Unknown
Apparent Right ascension
Unknown
Apparent Declination
Unknown
Sunlit
N/A
Visualization observer readout
Local Sidereal Time
21:47:23
Azimuth
Unknown
Elevation
Unknown
Doppler factor
Unknown
Orbital elements
Apogee altitude
789.673 km
Perigee altitude
768.753 km
Semi-major axis
7,157.35 km
Eccentricity
0.00146
Inclination
98.6285°
RAAN
235.539°
Arg. of periapsis
131.0333°
True anomaly
229.08505°
Mean anomaly
229.2117°
Eccentric anomaly
229.14836°
Mean motion
3.58439 °/min
Orbital period
100.44 mins
BSTAR
0.0010972
Loading maneuver chart data...
Computing Atmospheric mass density...

Documentation

Showing up to 5 results
|